| time (UTC) | temp C | wind direction | speed KPH | gust KPH | rain 1hr cm | rain 24hr cm | rain mn cm | humidity % | barometer mb |
| 20260504035554 | 14 | 182 | 1.6 | 9.7 | 0.00 | 0.00 | 0.00 | 59 | 1012.3 |
| 20260504035110 | 14 | 185 | 1.6 | 9.7 | 0.00 | 0.00 | 0.00 | 59 | 1012.4 |
| 20260504034548 | 13 | 152 | 0.0 | 6.4 | 0.00 | 0.00 | 0.00 | 59 | 1012.5 |
| 20260504034531 | 14 | 152 | 1.6 | 6.4 | 0.00 | 0.00 | 0.00 | 59 | 1012.3 |
| 20260504034036 | 14 | 152 | 0.0 | 4.8 | 0.00 | 0.00 | 0.00 | 60 | 1012.5 |
| 20260504033547 | 14 | 171 | 0.0 | 4.8 | 0.00 | 0.00 | 0.00 | 59 | 1012.6 |
| 20260504033044 | 14 | 171 | 1.6 | 6.4 | 0.00 | 0.00 | 0.00 | 59 | 1012.6 |
| 20260504033002 | 13 | 172 | 0.0 | 3.2 | 0.00 | 0.00 | 0.00 | 59 | 1012.9 |
| 20260504032550 | 14 | 172 | 1.6 | 4.8 | 0.00 | 0.00 | 0.00 | 59 | 1012.7 |
| 20260504032035 | 14 | 172 | 1.6 | 4.8 | 0.00 | 0.00 | 0.00 | 59 | 1012.8 |
| 20260504031632 | 13 | 171 | 0.0 | 6.4 | 0.00 | 0.00 | 0.00 | 59 | 1013.0 |
| 20260504031529 | 14 | 171 | 1.6 | 6.4 | 0.00 | 0.00 | 0.00 | 59 | 1012.7 |
| 20260504031034 | 14 | 171 | 1.6 | 6.4 | 0.00 | 0.00 | 0.00 | 59 | 1012.8 |
| 20260504030545 | 14 | 167 | 0.0 | 3.2 | 0.00 | 0.00 | 0.00 | 59 | 1012.8 |
| 20260504030121 | 14 | 198 | 0.0 | 8.0 | 0.00 | 0.00 | 0.00 | 59 | 1013.1 |
| 20260504030101 | 14 | 198 | 0.0 | 8.0 | 0.00 | 0.00 | 0.00 | 59 | 1012.8 |
| 20260504025549 | 14 | 198 | 3.2 | 8.0 | 0.00 | 0.00 | 0.00 | 58 | 1012.8 |
| 20260504025102 | 14 | 201 | 1.6 | 6.4 | 0.00 | 0.00 | 0.00 | 58 | 1012.8 |
| 20260504024639 | 14 | 201 | 0.0 | 6.4 | 0.00 | 0.00 | 0.00 | 58 | 1013.0 |
| 20260504024553 | 14 | 201 | 1.6 | 6.4 | 0.00 | 0.00 | 0.00 | 58 | 1012.7 |
| 20260504024037 | 14 | 213 | 1.6 | 6.4 | 0.00 | 0.00 | 0.00 | 58 | 1012.7 |
| 20260504023529 | 14 | 180 | 3.2 | 6.4 | 0.00 | 0.00 | 0.00 | 58 | 1012.7 |
| 20260504023118 | 14 | 184 | 0.0 | 11.3 | 0.00 | 0.00 | 0.00 | 58 | 1013.0 |
| 20260504023035 | 14 | 146 | 1.6 | 11.3 | 0.00 | 0.00 | 0.00 | 58 | 1012.7 |
| 20260504022523 | 14 | 165 | 1.6 | 11.3 | 0.00 | 0.00 | 0.00 | 58 | 1012.7 |
| 20260504022048 | 15 | 195 | 1.6 | 9.7 | 0.00 | 0.00 | 0.00 | 57 | 1012.8 |
| 20260504021556 | 14 | 184 | 1.6 | 8.0 | 0.00 | 0.00 | 0.00 | 57 | 1013.2 |
| 20260504021534 | 15 | 187 | 1.6 | 6.4 | 0.00 | 0.00 | 0.00 | 57 | 1013.0 |
| 20260504021055 | 15 | 192 | 1.6 | 4.8 | 0.00 | 0.00 | 0.00 | 56 | 1013.0 |
| 20260504020527 | 15 | 182 | 0.0 | 6.4 | 0.00 | 0.00 | 0.00 | 57 | 1012.9 |
| 20260504020116 | 15 | 182 | 0.0 | 6.4 | 0.00 | 0.00 | 0.00 | 56 | 1012.9 |
| 20260504015537 | 15 | 181 | 0.0 | 0.0 | 0.00 | 0.00 | 0.00 | 56 | 1012.9 |
| 20260504015040 | 15 | 181 | 0.0 | 8.0 | 0.00 | 0.00 | 0.00 | 55 | 1012.8 |
| 20260504014615 | 15 | 181 | 1.6 | 8.0 | 0.00 | 0.00 | 0.00 | 55 | 1013.2 |
| 20260504014551 | 15 | 180 | 1.6 | 8.0 | 0.00 | 0.00 | 0.00 | 55 | 1013.0 |
| 20260504014036 | 15 | 186 | 1.6 | 6.4 | 0.00 | 0.00 | 0.00 | 55 | 1012.9 |
| 20260504013548 | 15 | 186 | 1.6 | 6.4 | 0.00 | 0.00 | 0.00 | 54 | 1013.0 |
| 20260504013119 | 15 | 190 | 0.0 | 4.8 | 0.00 | 0.00 | 0.00 | 54 | 1013.1 |
| 20260504013027 | 15 | 190 | 1.6 | 4.8 | 0.00 | 0.00 | 0.00 | 54 | 1012.9 |
| 20260504012536 | 15 | 191 | 1.6 | 3.2 | 0.00 | 0.00 | 0.00 | 53 | 1012.8 |
| 20260504012042 | 15 | 190 | 0.0 | 6.4 | 0.00 | 0.00 | 0.00 | 53 | 1012.9 |
| 20260504011530 | 16 | 192 | 1.6 | 6.4 | 0.00 | 0.00 | 0.00 | 53 | 1013.1 |
| 20260504011504 | 15 | 192 | 0.0 | 4.8 | 0.00 | 0.00 | 0.00 | 53 | 1013.4 |
| 20260504011057 | 16 | 192 | 0.0 | 4.8 | 0.00 | 0.00 | 0.00 | 53 | 1013.2 |
| 20260504010548 | 16 | 192 | 0.0 | 4.8 | 0.00 | 0.00 | 0.00 | 52 | 1013.3 |
| 20260504010009 | 16 | 193 | 0.0 | 1.6 | 0.00 | 0.00 | 0.00 | 51 | 1013.5 |
| 20260504005532 | 16 | 193 | 0.0 | 1.6 | 0.00 | 0.00 | 0.00 | 51 | 1013.2 |
| 20260504005039 | 16 | 193 | 0.0 | 3.2 | 0.00 | 0.00 | 0.00 | 50 | 1013.2 |
| 20260504004618 | 16 | 193 | 0.0 | 9.7 | 0.00 | 0.00 | 0.00 | 50 | 1013.6 |
| 20260504004531 | 16 | 193 | 1.6 | 9.7 | 0.00 | 0.00 | 0.00 | 50 | 1013.3 |
| 20260504004031 | 16 | 189 | 1.6 | 12.9 | 0.00 | 0.00 | 0.00 | 50 | 1013.2 |
| 20260504003542 | 16 | 185 | 6.4 | 12.9 | 0.00 | 0.00 | 0.00 | 49 | 1013.4 |
| 20260504003057 | 16 | 192 | 4.8 | 11.3 | 0.00 | 0.00 | 0.00 | 49 | 1013.4 |
| 20260504003006 | 16 | 194 | 3.2 | 11.3 | 0.00 | 0.00 | 0.00 | 49 | 1013.7 |
| 20260504002546 | 16 | 200 | 3.2 | 14.5 | 0.00 | 0.00 | 0.00 | 49 | 1013.4 |
| 20260504002025 | 16 | 192 | 6.4 | 14.5 | 0.00 | 0.00 | 0.00 | 49 | 1013.5 |
| 20260504001535 | 16 | 196 | 8.0 | 14.5 | 0.00 | 0.00 | 0.00 | 48 | 1013.5 |
| 20260504001512 | 16 | 196 | 8.0 | 14.5 | 0.00 | 0.00 | 0.00 | 48 | 1013.8 |
| 20260504001041 | 17 | 203 | 1.6 | 8.0 | 0.00 | 0.00 | 0.00 | 49 | 1013.5 |
| 20260504000533 | 17 | 211 | 0.0 | 4.8 | 0.00 | 0.00 | 0.00 | 49 | 1013.4 |
| 20260504000148 | 16 | 211 | 1.6 | 12.9 | 0.00 | 0.00 | 0.00 | 48 | 1013.6 |
| 20260504000120 | 17 | 211 | 1.6 | 12.9 | 0.00 | 0.00 | 0.00 | 48 | 1013.3 |
| 20260503235548 | 17 | 206 | 6.4 | 12.9 | 0.00 | 0.00 | 0.00 | 47 | 1013.3 |
| 20260503235037 | 17 | 180 | 8.0 | 20.9 | 0.00 | 0.00 | 0.00 | 47 | 1013.2 |
| 20260503234550 | 17 | 192 | 8.0 | 20.9 | 0.00 | 0.00 | 0.00 | 46 | 1013.2 |
| 20260503234507 | 17 | 211 | 6.4 | 20.9 | 0.00 | 0.00 | 0.00 | 46 | 1013.5 |
| 20260503234045 | 17 | 199 | 6.4 | 20.9 | 0.00 | 0.00 | 0.00 | 46 | 1013.1 |
| 20260503233556 | 17 | 211 | 8.0 | 30.6 | 0.00 | 0.00 | 0.00 | 46 | 1013.0 |
| 20260503233116 | 17 | 190 | 12.9 | 30.6 | 0.00 | 0.00 | 0.00 | 46 | 1013.1 |
| 20260503233037 | 17 | 205 | 11.3 | 30.6 | 0.00 | 0.00 | 0.00 | 46 | 1012.9 |
| 20260503232528 | 17 | 159 | 4.8 | 20.9 | 0.00 | 0.00 | 0.00 | 46 | 1012.8 |
| 20260503232059 | 17 | 199 | 11.3 | 24.1 | 0.00 | 0.00 | 0.00 | 46 | 1012.8 |
| 20260503231558 | 17 | 200 | 6.4 | 24.1 | 0.00 | 0.00 | 0.00 | 46 | 1013.2 |
| 20260503231531 | 17 | 211 | 6.4 | 24.1 | 0.00 | 0.00 | 0.00 | 46 | 1012.9 |
| 20260503231036 | 17 | 205 | 6.4 | 22.5 | 0.00 | 0.00 | 0.00 | 46 | 1012.8 |
| 20260503230547 | 17 | 194 | 8.0 | 20.9 | 0.00 | 0.00 | 0.00 | 45 | 1012.9 |
| 20260503230141 | 17 | 194 | 6.4 | 25.7 | 0.00 | 0.00 | 0.00 | 45 | 1013.3 |
| 20260503230058 | 17 | 203 | 8.0 | 25.7 | 0.00 | 0.00 | 0.00 | 45 | 1013.0 |
| 20260503225550 | 18 | 163 | 8.0 | 19.3 | 0.00 | 0.00 | 0.00 | 44 | 1013.1 |
| 20260503225028 | 18 | 193 | 6.4 | 19.3 | 0.00 | 0.00 | 0.00 | 45 | 1013.0 |
| 20260503224654 | 17 | 182 | 8.0 | 29.0 | 0.00 | 0.00 | 0.00 | 45 | 1013.4 |
| 20260503224537 | 18 | 209 | 4.8 | 29.0 | 0.00 | 0.00 | 0.00 | 45 | 1013.1 |
| 20260503224041 | 17 | 224 | 11.3 | 29.0 | 0.00 | 0.00 | 0.00 | 45 | 1013.2 |
| 20260503223554 | 17 | 198 | 4.8 | 20.9 | 0.00 | 0.00 | 0.00 | 46 | 1013.1 |
| 20260503223124 | 17 | 222 | 8.0 | 24.1 | 0.00 | 0.00 | 0.00 | 45 | 1013.5 |
| 20260503223054 | 17 | 181 | 9.7 | 24.1 | 0.00 | 0.00 | 0.00 | 45 | 1013.2 |
| 20260503222608 | 17 | 191 | 9.7 | 25.7 | 0.00 | 0.00 | 0.00 | 45 | 1013.2 |
| 20260503222025 | 17 | 191 | 8.0 | 22.5 | 0.00 | 0.00 | 0.00 | 46 | 1013.3 |
| 20260503221603 | 17 | 209 | 6.4 | 33.8 | 0.00 | 0.00 | 0.00 | 44 | 1013.6 |
| 20260503221536 | 17 | 217 | 6.4 | 33.8 | 0.00 | 0.00 | 0.00 | 45 | 1013.3 |
| 20260503221042 | 17 | 189 | 16.1 | 33.8 | 0.00 | 0.00 | 0.00 | 44 | 1013.5 |
| 20260503220535 | 17 | 232 | 11.3 | 30.6 | 0.00 | 0.00 | 0.00 | 45 | 1013.4 |
| 20260503220146 | 17 | 186 | 14.5 | 30.6 | 0.00 | 0.00 | 0.00 | 44 | 1013.9 |
| 20260503220052 | 17 | 215 | 16.1 | 30.6 | 0.00 | 0.00 | 0.00 | 44 | 1013.5 |
| 20260503215535 | 17 | 184 | 9.7 | 20.9 | 0.00 | 0.00 | 0.00 | 44 | 1013.5 |
| 20260503215040 | 17 | 190 | 8.0 | 25.7 | 0.00 | 0.00 | 0.00 | 44 | 1013.7 |
| 20260503214634 | 17 | 207 | 6.4 | 25.7 | 0.00 | 0.00 | 0.00 | 45 | 1014.2 |
| 20260503214549 | 17 | 173 | 9.7 | 25.7 | 0.00 | 0.00 | 0.00 | 45 | 1013.9 |
| 20260503214044 | 17 | 195 | 9.7 | 22.5 | 0.00 | 0.00 | 0.00 | 44 | 1014.1 |
| 20260503213535 | 17 | 211 | 6.4 | 24.1 | 0.00 | 0.00 | 0.00 | 44 | 1014.2 |
| 20260503213115 | 17 | 211 | 11.3 | 24.1 | 0.00 | 0.00 | 0.00 | 43 | 1014.7 |
| 20260503213041 | 17 | 232 | 11.3 | 24.1 | 0.00 | 0.00 | 0.00 | 43 | 1014.3 |
| 20260503212534 | 17 | 188 | 4.8 | 25.7 | 0.00 | 0.00 | 0.00 | 44 | 1014.2 |
| 20260503212039 | 17 | 205 | 9.7 | 25.7 | 0.00 | 0.00 | 0.00 | 42 | 1014.2 |
| 20260503211611 | 17 | 186 | 8.0 | 29.0 | 0.00 | 0.00 | 0.00 | 43 | 1014.8 |
| 20260503211546 | 17 | 202 | 8.0 | 29.0 | 0.00 | 0.00 | 0.00 | 42 | 1014.4 |
| 20260503211042 | 17 | 151 | 14.5 | 29.0 | 0.00 | 0.00 | 0.00 | 42 | 1014.6 |
| 20260503210552 | 17 | 210 | 4.8 | 24.1 | 0.00 | 0.00 | 0.00 | 43 | 1014.8 |
| 20260503210149 | 17 | 214 | 11.3 | 29.0 | 0.00 | 0.00 | 0.00 | 42 | 1015.3 |
| 20260503210059 | 17 | 217 | 12.9 | 29.0 | 0.00 | 0.00 | 0.00 | 41 | 1015.1 |
| 20260503205528 | 17 | 207 | 14.5 | 29.0 | 0.00 | 0.00 | 0.00 | 41 | 1015.4 |
| 20260503205034 | 17 | 206 | 9.7 | 20.9 | 0.00 | 0.00 | 0.00 | 43 | 1015.4 |
| 20260503204639 | 17 | 180 | 9.7 | 17.7 | 0.00 | 0.00 | 0.00 | 44 | 1015.7 |
| 20260503204548 | 17 | 113 | 9.7 | 17.7 | 0.00 | 0.00 | 0.00 | 44 | 1015.3 |
| 20260503204040 | 17 | 209 | 9.7 | 17.7 | 0.00 | 0.00 | 0.00 | 42 | 1015.6 |
| 20260503203552 | 17 | 192 | 8.0 | 16.1 | 0.00 | 0.00 | 0.00 | 42 | 1015.5 |
| 20260503203119 | 17 | 174 | 8.0 | 22.5 | 0.00 | 0.00 | 0.00 | 43 | 1016.1 |
| 20260503203029 | 17 | 200 | 9.7 | 22.5 | 0.00 | 0.00 | 0.00 | 43 | 1015.6 |
| 20260503202536 | 17 | 211 | 8.0 | 24.1 | 0.00 | 0.00 | 0.00 | 43 | 1015.5 |
| 20260503202039 | 17 | 149 | 11.3 | 35.4 | 0.00 | 0.00 | 0.00 | 44 | 1015.3 |
| 20260503201546 | 17 | 212 | 17.7 | 33.8 | 0.00 | 0.00 | 0.00 | 43 | 1016.1 |
| 20260503201529 | 17 | 218 | 19.3 | 33.8 | 0.00 | 0.00 | 0.00 | 43 | 1015.7 |
| 20260503201033 | 17 | 222 | 11.3 | 27.4 | 0.00 | 0.00 | 0.00 | 43 | 1015.8 |
| 20260503200541 | 17 | 189 | 4.8 | 24.1 | 0.00 | 0.00 | 0.00 | 43 | 1015.7 |
| 20260503200144 | 17 | 183 | 4.8 | 24.1 | 0.00 | 0.00 | 0.00 | 44 | 1016.0 |
| 20260503200100 | 17 | 322 | 6.4 | 24.1 | 0.00 | 0.00 | 0.00 | 44 | 1015.7 |
| 20260503195548 | 17 | 210 | 6.4 | 32.2 | 0.00 | 0.00 | 0.00 | 44 | 1015.8 |
| 20260503195043 | 17 | 219 | 14.5 | 32.2 | 0.00 | 0.00 | 0.00 | 42 | 1016.2 |
| 20260503194611 | 17 | 250 | 9.7 | 30.6 | 0.00 | 0.00 | 0.00 | 42 | 1016.5 |
| 20260503194534 | 17 | 209 | 9.7 | 30.6 | 0.00 | 0.00 | 0.00 | 41 | 1016.2 |
| 20260503194040 | 17 | 192 | 14.5 | 30.6 | 0.00 | 0.00 | 0.00 | 40 | 1016.2 |
| 20260503193532 | 17 | 246 | 9.7 | 24.1 | 0.00 | 0.00 | 0.00 | 43 | 1016.4 |
| 20260503193119 | 17 | 191 | 12.9 | 24.1 | 0.00 | 0.00 | 0.00 | 41 | 1016.7 |
| 20260503193107 | 17 | 203 | 11.3 | 24.1 | 0.00 | 0.00 | 0.00 | 42 | 1016.3 |
| 20260503192531 | 17 | 275 | 9.7 | 25.7 | 0.00 | 0.00 | 0.00 | 45 | 1016.3 |
| 20260503192033 | 16 | 190 | 9.7 | 25.7 | 0.00 | 0.00 | 0.00 | 42 | 1016.5 |
| 20260503191559 | 16 | 201 | 9.7 | 30.6 | 0.00 | 0.00 | 0.00 | 41 | 1017.1 |
| 20260503191547 | 17 | 196 | 9.7 | 30.6 | 0.00 | 0.00 | 0.00 | 41 | 1016.7 |
| 20260503191042 | 17 | 192 | 12.9 | 30.6 | 0.00 | 0.00 | 0.00 | 42 | 1016.7 |
| 20260503190552 | 16 | 221 | 6.4 | 17.7 | 0.00 | 0.00 | 0.00 | 41 | 1016.8 |
| 20260503190143 | 16 | 169 | 4.8 | 25.7 | 0.00 | 0.00 | 0.00 | 42 | 1017.2 |
| 20260503190105 | 16 | 209 | 4.8 | 25.7 | 0.00 | 0.00 | 0.00 | 43 | 1016.9 |
| 20260503185530 | 16 | 157 | 8.0 | 27.4 | 0.00 | 0.00 | 0.00 | 42 | 1017.1 |
| 20260503185036 | 17 | 211 | 12.9 | 27.4 | 0.00 | 0.00 | 0.00 | 42 | 1017.2 |
| 20260503184640 | 16 | 174 | 3.2 | 16.1 | 0.00 | 0.00 | 0.00 | 42 | 1017.5 |
| 20260503184525 | 17 | 222 | 6.4 | 16.1 | 0.00 | 0.00 | 0.00 | 43 | 1017.2 |
| 20260503184028 | 16 | 235 | 4.8 | 19.3 | 0.00 | 0.00 | 0.00 | 44 | 1017.4 |
| 20260503183612 | 16 | 207 | 9.7 | 27.4 | 0.00 | 0.00 | 0.00 | 40 | 1017.6 |
| 20260503183104 | 16 | 200 | 6.4 | 27.4 | 0.00 | 0.00 | 0.00 | 44 | 1018.0 |
| 20260503183029 | 16 | 180 | 6.4 | 27.4 | 0.00 | 0.00 | 0.00 | 43 | 1017.6 |
| 20260503182538 | 16 | 196 | 9.7 | 25.7 | 0.00 | 0.00 | 0.00 | 43 | 1017.8 |
| 20260503182036 | 16 | 194 | 11.3 | 25.7 | 0.00 | 0.00 | 0.00 | 41 | 1017.9 |
| 20260503181605 | 16 | 207 | 11.3 | 22.5 | 0.00 | 0.00 | 0.00 | 42 | 1018.5 |
| 20260503181527 | 16 | 216 | 11.3 | 24.1 | 0.00 | 0.00 | 0.00 | 43 | 1018.1 |
| 20260503181029 | 16 | 192 | 4.8 | 19.3 | 0.00 | 0.00 | 0.00 | 44 | 1018.1 |
| 20260503180551 | 16 | 188 | 9.7 | 25.7 | 0.00 | 0.00 | 0.00 | 45 | 1018.2 |
| 20260503180134 | 16 | 180 | 9.7 | 25.7 | 0.00 | 0.00 | 0.00 | 43 | 1018.7 |
| 20260503180103 | 16 | 150 | 12.9 | 25.7 | 0.00 | 0.00 | 0.00 | 43 | 1018.2 |
| 20260503175551 | 16 | 47 | 8.0 | 27.4 | 0.00 | 0.00 | 0.00 | 44 | 1018.4 |
| 20260503175027 | 16 | 225 | 8.0 | 27.4 | 0.00 | 0.00 | 0.00 | 44 | 1018.6 |
| 20260503174616 | 15 | 188 | 14.5 | 25.7 | 0.00 | 0.00 | 0.00 | 42 | 1019.0 |
| 20260503174535 | 16 | 142 | 14.5 | 25.7 | 0.00 | 0.00 | 0.00 | 43 | 1018.6 |
| 20260503174041 | 16 | 176 | 12.9 | 32.2 | 0.00 | 0.00 | 0.00 | 43 | 1018.6 |
| 20260503173552 | 16 | 183 | 9.7 | 32.2 | 0.00 | 0.00 | 0.00 | 43 | 1018.6 |
| 20260503173114 | 15 | 196 | 8.0 | 29.0 | 0.00 | 0.00 | 0.00 | 44 | 1019.0 |
| 20260503173027 | 16 | 46 | 9.7 | 29.0 | 0.00 | 0.00 | 0.00 | 43 | 1018.6 |
| 20260503172535 | 15 | 202 | 4.8 | 29.0 | 0.00 | 0.00 | 0.00 | 45 | 1018.6 |
| 20260503172038 | 15 | 207 | 14.5 | 32.2 | 0.00 | 0.00 | 0.00 | 43 | 1018.8 |
| 20260503171605 | 15 | 157 | 8.0 | 32.2 | 0.00 | 0.00 | 0.00 | 43 | 1019.3 |
| 20260503171547 | 15 | 199 | 9.7 | 32.2 | 0.00 | 0.00 | 0.00 | 44 | 1018.9 |
| 20260503171038 | 15 | 202 | 12.9 | 29.0 | 0.00 | 0.00 | 0.00 | 46 | 1018.9 |
| 20260503170526 | 15 | 127 | 8.0 | 17.7 | 0.00 | 0.00 | 0.00 | 42 | 1018.9 |
| 20260503170106 | 15 | 149 | 6.4 | 17.7 | 0.00 | 0.00 | 0.00 | 45 | 1019.1 |
| 20260503160135 | 14 | 225 | 9.7 | 22.5 | 0.00 | 0.00 | 0.00 | 43 | 1020.5 |
| 20260503150532 | 12 | 183 | 3.2 | 24.1 | 0.00 | 0.00 | 0.00 | 50 | 1020.5 |
| 20260503140150 | 10 | 205 | 6.4 | 16.1 | 0.00 | 0.00 | 0.00 | 54 | 1021.1 |
| 20260503140117 | 11 | 241 | 9.7 | 16.1 | 0.00 | 0.00 | 0.00 | 54 | 1020.5 |
| 20260503131027 | 7 | 209 | 0.0 | 6.4 | 0.00 | 0.00 | 0.00 | 73 | 1020.8 |
| 20260503130609 | 7 | 211 | 3.2 | 6.4 | 0.00 | 0.00 | 0.00 | 78 | 1020.8 |
| 20260503130133 | 6 | 142 | 0.0 | 4.8 | 0.00 | 0.00 | 0.00 | 83 | 1021.4 |
| 20260503120131 | 1 | 303 | 0.0 | 0.0 | 0.00 | 0.00 | 0.00 | 94 | 1021.3 |
| 20260503110527 | 0 | 303 | 0.0 | 0.0 | 0.00 | 0.00 | 0.00 | 93 | 1020.1 |
| 20260503110123 | 0 | 303 | 0.0 | 0.0 | 0.00 | 0.00 | 0.00 | 93 | 1020.6 |
| 20260503110104 | 0 | 303 | 0.0 | 0.0 | 0.00 | 0.00 | 0.00 | 93 | 1020.1 |
| 20260503100150 | 0 | 303 | 0.0 | 0.0 | 0.00 | 0.00 | 0.00 | 92 | 1020.5 |
| 20260503090105 | 0 | 303 | 0.0 | 0.0 | 0.00 | 0.00 | 0.00 | 92 | 1020.1 |
| 20260503081555 | 0 | 303 | 0.0 | 0.0 | 0.00 | 0.00 | 0.00 | 92 | 1020.5 |
| 20260503081530 | 0 | 303 | 0.0 | 0.0 | 0.00 | 0.00 | 0.00 | 92 | 1019.9 |
| 20260503081035 | 0 | 303 | 0.0 | 0.0 | 0.00 | 0.00 | 0.00 | 91 | 1019.9 |
| 20260503080547 | 0 | 303 | 0.0 | 0.0 | 0.00 | 0.00 | 0.00 | 91 | 1019.9 |
| 20260503080137 | 0 | 303 | 0.0 | 0.0 | 0.00 | 0.00 | 0.00 | 91 | 1020.4 |
| 20260503072526 | 0 | 303 | 0.0 | 0.0 | 0.00 | 0.00 | 0.00 | 91 | 1019.7 |
| 20260503072059 | 0 | 303 | 0.0 | 0.0 | 0.00 | 0.00 | 0.00 | 91 | 1019.8 |
| 20260503071611 | 0 | 303 | 0.0 | 0.0 | 0.00 | 0.00 | 0.00 | 91 | 1020.3 |
| 20260503071550 | 0 | 303 | 0.0 | 0.0 | 0.00 | 0.00 | 0.00 | 91 | 1019.8 |
| 20260503071037 | 0 | 303 | 0.0 | 0.0 | 0.00 | 0.00 | 0.00 | 91 | 1019.8 |
| 20260503070529 | 0 | 303 | 0.0 | 0.0 | 0.00 | 0.00 | 0.00 | 91 | 1019.9 |
| 20260503070131 | 0 | 303 | 0.0 | 0.0 | 0.00 | 0.00 | 0.00 | 91 | 1020.4 |
| 20260503060141 | 1 | 303 | 0.0 | 0.0 | 0.00 | 0.00 | 0.00 | 90 | 1020.6 |
| 20260503055102 | 1 | 303 | 0.0 | 0.0 | 0.00 | 0.00 | 0.00 | 90 | 1020.2 |
| 20260503054627 | 1 | 303 | 0.0 | 0.0 | 0.00 | 0.00 | 0.00 | 90 | 1020.7 |
| 20260503054532 | 1 | 303 | 0.0 | 0.0 | 0.00 | 0.00 | 0.00 | 90 | 1020.2 |
| 20260503054038 | 1 | 303 | 0.0 | 0.0 | 0.00 | 0.00 | 0.00 | 89 | 1020.2 |
| 20260503053529 | 1 | 303 | 0.0 | 0.0 | 0.00 | 0.00 | 0.00 | 89 | 1020.2 |
| 20260503053112 | 1 | 303 | 0.0 | 0.0 | 0.00 | 0.00 | 0.00 | 89 | 1020.7 |
| 20260503053033 | 1 | 303 | 0.0 | 0.0 | 0.00 | 0.00 | 0.00 | 89 | 1020.2 |
| 20260503052540 | 1 | 303 | 0.0 | 0.0 | 0.00 | 0.00 | 0.00 | 89 | 1020.2 |
| 20260503052024 | 1 | 303 | 0.0 | 0.0 | 0.00 | 0.00 | 0.00 | 89 | 1020.3 |
| 20260503051557 | 1 | 303 | 0.0 | 0.0 | 0.00 | 0.00 | 0.00 | 89 | 1020.4 |
| 20260503051512 | 1 | 303 | 0.0 | 0.0 | 0.00 | 0.00 | 0.00 | 89 | 1020.8 |
| 20260503051039 | 2 | 303 | 0.0 | 0.0 | 0.00 | 0.00 | 0.00 | 89 | 1020.4 |
| 20260503050550 | 2 | 303 | 0.0 | 0.0 | 0.00 | 0.00 | 0.00 | 88 | 1020.4 |
| 20260503050126 | 1 | 303 | 0.0 | 0.0 | 0.00 | 0.00 | 0.00 | 88 | 1020.7 |
| 20260503050101 | 2 | 303 | 0.0 | 0.0 | 0.00 | 0.00 | 0.00 | 88 | 1020.3 |
| 20260503045531 | 2 | 303 | 0.0 | 0.0 | 0.00 | 0.00 | 0.00 | 88 | 1020.4 |
| 20260503045032 | 2 | 303 | 0.0 | 0.0 | 0.00 | 0.00 | 0.00 | 88 | 1020.3 |
| 20260503044559 | 2 | 303 | 0.0 | 0.0 | 0.00 | 0.00 | 0.00 | 88 | 1020.7 |
| 20260503044545 | 2 | 303 | 0.0 | 0.0 | 0.00 | 0.00 | 0.00 | 88 | 1020.2 |
| 20260503044051 | 2 | 303 | 0.0 | 0.0 | 0.00 | 0.00 | 0.00 | 87 | 1020.3 |
| 20260503043535 | 2 | 303 | 0.0 | 0.0 | 0.00 | 0.00 | 0.00 | 87 | 1020.3 |
| 20260503043042 | 2 | 303 | 0.0 | 0.0 | 0.00 | 0.00 | 0.00 | 87 | 1020.2 |
| 20260503043025 | 2 | 303 | 0.0 | 0.0 | 0.00 | 0.00 | 0.00 | 87 | 1020.6 |
| 20260503042532 | 2 | 303 | 0.0 | 0.0 | 0.00 | 0.00 | 0.00 | 86 | 1020.2 |
| 20260503042038 | 2 | 303 | 0.0 | 0.0 | 0.00 | 0.00 | 0.00 | 86 | 1020.2 |
| 20260503041551 | 2 | 303 | 0.0 | 0.0 | 0.00 | 0.00 | 0.00 | 86 | 1020.6 |
| 20260503041530 | 2 | 303 | 0.0 | 0.0 | 0.00 | 0.00 | 0.00 | 86 | 1020.1 |
| 20260503041057 | 2 | 303 | 0.0 | 0.0 | 0.00 | 0.00 | 0.00 | 85 | 1020.1 |
| 20260503040526 | 2 | 303 | 0.0 | 0.0 | 0.00 | 0.00 | 0.00 | 85 | 1020.1 |
| 20260503040129 | 2 | 303 | 0.0 | 0.0 | 0.00 | 0.00 | 0.00 | 85 | 1020.5 |
| 20260503040114 | 2 | 303 | 0.0 | 0.0 | 0.00 | 0.00 | 0.00 | 85 | 1020.1 |